Powrót do katalogu

THORAD AGENA D DEB

LostSSO
NORAD 42549·DEBRIS·🇺🇸 United States

Wystrzelony Apr 8, 1970 z Vandenberg Space Force Base

Loading…

Następne Przeloty (najbliższe 24 godziny)

TLE

NieaktualneSource: Space-Track

Epoka: Jun 9, 2024, 20:20 UTC

1 42549U 70025TF  24161.84765063  .00005615  00000-0  51321-2 0  9992
2 42549  99.4344   4.4707 0230986 182.1728 177.8437 13.72190987556200

Śledź THORAD AGENA D DEB w czasie rzeczywistym z AllMySat

Download on the App Store